| time (UTC) | temp F | wind direction | speed MPH | gust MPH | rain 1hr in | rain 24hr in | rain mn in | humidity % | barometer mb |
| 20260906220430 | 72 | 344 | 2.0 | 6.0 | 0.00 | 0.00 | 0.00 | 59 | 1019.0 |
| 20260906220302 | 72 | 359 | 2.0 | 6.0 | 0.00 | 0.00 | 0.00 | 60 | 1019.0 |
| 20260906215430 | 72 | 30 | 1.0 | 6.0 | 0.00 | 0.00 | 0.00 | 61 | 1019.0 |
| 20260906215306 | 72 | 0 | 1.0 | 4.0 | 0.00 | 0.00 | 0.00 | 60 | 1018.9 |
| 20260906214737 | 72 | 0 | 1.0 | 5.0 | 0.00 | 0.00 | 0.00 | 58 | 1018.9 |
| 20260906214529 | 72 | 0 | 1.0 | 5.0 | 0.00 | 0.00 | 0.00 | 60 | 1018.9 |
| 20260906213822 | 73 | 352 | 2.0 | 8.0 | 0.00 | 0.00 | 0.00 | 57 | 1019.0 |
| 20260906213602 | 72 | 53 | 2.0 | 9.0 | 0.00 | 0.00 | 0.00 | 58 | 1019.0 |
| 20260906213301 | 73 | 314 | 2.0 | 9.0 | 0.00 | 0.00 | 0.00 | 59 | 1019.0 |
| 20260906212301 | 73 | 57 | 2.0 | 8.0 | 0.00 | 0.00 | 0.00 | 61 | 1019.0 |
| 20260906211429 | 73 | 75 | 2.0 | 8.0 | 0.00 | 0.00 | 0.00 | 58 | 1019.0 |
| 20260906211301 | 73 | 0 | 2.0 | 7.0 | 0.00 | 0.00 | 0.00 | 58 | 1019.0 |
| 20260906210428 | 73 | 310 | 2.0 | 8.0 | 0.00 | 0.00 | 0.00 | 58 | 1019.0 |
| 20260906210300 | 73 | 61 | 2.0 | 8.0 | 0.00 | 0.00 | 0.00 | 57 | 1019.0 |
| 20260906205429 | 73 | 0 | 2.0 | 6.0 | 0.00 | 0.00 | 0.00 | 59 | 1019.0 |
| 20260906205305 | 72 | 280 | 2.0 | 6.0 | 0.00 | 0.00 | 0.00 | 60 | 1019.0 |
| 20260906204430 | 73 | 308 | 1.0 | 6.0 | 0.00 | 0.00 | 0.00 | 61 | 1019.0 |
| 20260906204302 | 74 | 324 | 2.0 | 6.0 | 0.00 | 0.00 | 0.00 | 61 | 1019.0 |
| 20260906203430 | 75 | 251 | 2.0 | 7.0 | 0.00 | 0.00 | 0.00 | 57 | 1019.0 |
| 20260906203301 | 75 | 339 | 2.0 | 7.0 | 0.00 | 0.00 | 0.00 | 56 | 1019.0 |
| 20260906202429 | 73 | 56 | 1.0 | 6.0 | 0.00 | 0.00 | 0.00 | 59 | 1019.0 |
| 20260906202306 | 73 | 128 | 2.0 | 6.0 | 0.00 | 0.00 | 0.00 | 59 | 1019.0 |
| 20260906201429 | 74 | 259 | 2.0 | 6.0 | 0.00 | 0.00 | 0.00 | 58 | 1018.9 |
| 20260906201301 | 74 | 100 | 2.0 | 6.0 | 0.00 | 0.00 | 0.00 | 58 | 1018.9 |
| 20260906200430 | 74 | 106 | 2.0 | 6.0 | 0.00 | 0.00 | 0.00 | 54 | 1018.7 |
| 20260906200303 | 74 | 85 | 2.0 | 6.0 | 0.00 | 0.00 | 0.00 | 53 | 1018.8 |
| 20260906195431 | 74 | 46 | 2.0 | 8.0 | 0.00 | 0.00 | 0.00 | 58 | 1018.9 |
| 20260906195301 | 74 | 0 | 2.0 | 8.0 | 0.00 | 0.00 | 0.00 | 58 | 1018.9 |
| 20260906194431 | 74 | 123 | 2.0 | 6.0 | 0.00 | 0.00 | 0.00 | 57 | 1018.8 |
| 20260906194300 | 74 | 327 | 1.0 | 6.0 | 0.00 | 0.00 | 0.00 | 57 | 1018.8 |
| 20260906193429 | 74 | 340 | 2.0 | 6.0 | 0.00 | 0.00 | 0.00 | 60 | 1019.1 |
| 20260906193302 | 74 | 337 | 2.0 | 6.0 | 0.00 | 0.00 | 0.00 | 59 | 1019.1 |
| 20260906192431 | 75 | 53 | 3.0 | 8.0 | 0.00 | 0.00 | 0.00 | 58 | 1019.1 |
| 20260906192306 | 75 | 62 | 3.0 | 8.0 | 0.00 | 0.00 | 0.00 | 58 | 1019.1 |
| 20260906191910 | 75 | 65 | 3.0 | 10.0 | 0.00 | 0.00 | 0.00 | 57 | 1019.0 |
| 20260906191300 | 75 | 89 | 3.0 | 10.0 | 0.00 | 0.00 | 0.00 | 57 | 1019.0 |
| 20260906190430 | 73 | 322 | 2.0 | 9.0 | 0.00 | 0.00 | 0.00 | 59 | 1019.1 |
| 20260906190301 | 74 | 0 | 2.0 | 9.0 | 0.00 | 0.00 | 0.00 | 58 | 1019.1 |
| 20260906185430 | 75 | 61 | 2.0 | 7.0 | 0.00 | 0.00 | 0.00 | 56 | 1019.0 |
| 20260906185301 | 76 | 340 | 3.0 | 7.0 | 0.00 | 0.00 | 0.00 | 55 | 1019.1 |
| 20260906184746 | 74 | 310 | 4.0 | 9.0 | 0.00 | 0.00 | 0.00 | 59 | 1019.0 |
| 20260906184531 | 74 | 332 | 3.0 | 9.0 | 0.00 | 0.00 | 0.00 | 59 | 1019.0 |
| 20260906183750 | 73 | 278 | 3.0 | 9.0 | 0.00 | 0.00 | 0.00 | 62 | 1019.1 |
| 20260906183530 | 73 | 60 | 3.0 | 9.0 | 0.00 | 0.00 | 0.00 | 59 | 1019.1 |
| 20260906182429 | 72 | 81 | 2.0 | 9.0 | 0.00 | 0.00 | 0.00 | 63 | 1019.1 |
| 20260906182306 | 72 | 274 | 1.0 | 5.0 | 0.00 | 0.00 | 0.00 | 65 | 1019.2 |
| 20260906182235 | 74 | 97 | 1.0 | 5.0 | 0.00 | 0.00 | 0.00 | 61 | 1019.2 |
| 20260906181531 | 74 | 0 | 1.0 | 5.0 | 0.00 | 0.00 | 0.00 | 62 | 1019.2 |
| 20260906180431 | 74 | 325 | 2.0 | 5.0 | 0.00 | 0.00 | 0.00 | 61 | 1019.3 |
| 20260906180301 | 73 | 274 | 2.0 | 5.0 | 0.00 | 0.00 | 0.00 | 59 | 1019.3 |
| 20260906175910 | 73 | 335 | 2.0 | 9.0 | 0.00 | 0.00 | 0.00 | 64 | 1019.4 |
| 20260906175259 | 73 | 22 | 2.0 | 9.0 | 0.00 | 0.00 | 0.00 | 63 | 1019.4 |
| 20260906175225 | 75 | 328 | 3.0 | 8.0 | 0.00 | 0.00 | 0.00 | 57 | 1019.6 |
| 20260906174534 | 75 | 60 | 2.0 | 8.0 | 0.00 | 0.00 | 0.00 | 58 | 1019.4 |
| 20260906173430 | 75 | 122 | 3.0 | 7.0 | 0.00 | 0.00 | 0.00 | 58 | 1019.6 |
| 20260906173256 | 75 | 305 | 3.0 | 8.0 | 0.00 | 0.00 | 0.00 | 57 | 1019.6 |
| 20260906172430 | 74 | 130 | 2.0 | 8.0 | 0.00 | 0.00 | 0.00 | 55 | 1019.7 |
| 20260906172257 | 74 | 100 | 1.0 | 5.0 | 0.00 | 0.00 | 0.00 | 58 | 1019.8 |
| 20260906171430 | 72 | 335 | 2.0 | 5.0 | 0.00 | 0.00 | 0.00 | 61 | 1019.8 |
| 20260906171257 | 73 | 0 | 2.0 | 6.0 | 0.00 | 0.00 | 0.00 | 63 | 1019.9 |
| 20260906170429 | 74 | 98 | 2.0 | 8.0 | 0.00 | 0.00 | 0.00 | 60 | 1019.9 |
| 20260906170255 | 74 | 54 | 2.0 | 8.0 | 0.00 | 0.00 | 0.00 | 60 | 1019.8 |
| 20260906165430 | 73 | 125 | 3.0 | 6.0 | 0.00 | 0.00 | 0.00 | 61 | 1019.9 |
| 20260906165258 | 73 | 122 | 3.0 | 6.0 | 0.00 | 0.00 | 0.00 | 62 | 1019.9 |
| 20260906164730 | 72 | 331 | 2.0 | 6.0 | 0.00 | 0.00 | 0.00 | 61 | 1019.9 |
| 20260906164555 | 72 | 332 | 2.0 | 6.0 | 0.00 | 0.00 | 0.00 | 63 | 1020.0 |
| 20260906164532 | 73 | 37 | 2.0 | 6.0 | 0.00 | 0.00 | 0.00 | 59 | 1019.9 |
| 20260906163256 | 72 | 0 | 2.0 | 9.0 | 0.00 | 0.00 | 0.00 | 61 | 1020.0 |
| 20260906162430 | 74 | 318 | 3.0 | 9.0 | 0.00 | 0.00 | 0.00 | 60 | 1019.9 |
| 20260906162255 | 74 | 100 | 3.0 | 9.0 | 0.00 | 0.00 | 0.00 | 64 | 1019.9 |
| 20260906161429 | 73 | 320 | 2.0 | 8.0 | 0.00 | 0.00 | 0.00 | 64 | 1019.9 |
| 20260906161254 | 73 | 25 | 3.0 | 8.0 | 0.00 | 0.00 | 0.00 | 64 | 1019.9 |
| 20260906160430 | 74 | 58 | 2.0 | 6.0 | 0.00 | 0.00 | 0.00 | 60 | 1020.0 |
| 20260906160254 | 73 | 136 | 2.0 | 6.0 | 0.00 | 0.00 | 0.00 | 62 | 1020.0 |
| 20260906155419 | 73 | 355 | 2.0 | 7.0 | 0.00 | 0.00 | 0.00 | 62 | 1019.9 |
| 20260906155254 | 73 | 150 | 2.0 | 7.0 | 0.00 | 0.00 | 0.00 | 63 | 1019.9 |
| 20260906154729 | 71 | 0 | 2.0 | 8.0 | 0.00 | 0.00 | 0.00 | 66 | 1019.9 |
| 20260906154527 | 72 | 0 | 2.0 | 8.0 | 0.00 | 0.00 | 0.00 | 67 | 1019.9 |
| 20260906153416 | 71 | 47 | 2.0 | 7.0 | 0.00 | 0.00 | 0.00 | 66 | 1019.9 |
| 20260906153252 | 71 | 299 | 2.0 | 8.0 | 0.00 | 0.00 | 0.00 | 70 | 1019.9 |
| 20260906152854 | 71 | 0 | 3.0 | 8.0 | 0.00 | 0.00 | 0.00 | 71 | 1019.9 |
| 20260906152253 | 71 | 60 | 3.0 | 8.0 | 0.00 | 0.00 | 0.00 | 70 | 1019.9 |
| 20260906151903 | 72 | 88 | 2.0 | 9.0 | 0.00 | 0.00 | 0.00 | 70 | 1019.7 |
| 20260906151249 | 72 | 52 | 2.0 | 9.0 | 0.00 | 0.00 | 0.00 | 69 | 1019.6 |
| 20260906150414 | 71 | 239 | 3.0 | 6.0 | 0.00 | 0.00 | 0.00 | 71 | 1019.6 |
| 20260906150250 | 71 | 306 | 3.0 | 6.0 | 0.00 | 0.00 | 0.00 | 70 | 1019.7 |
| 20260906145415 | 71 | 146 | 2.0 | 8.0 | 0.00 | 0.00 | 0.00 | 72 | 1019.6 |
| 20260906145250 | 71 | 327 | 3.0 | 8.0 | 0.00 | 0.00 | 0.00 | 73 | 1019.6 |
| 20260906144724 | 70 | 334 | 3.0 | 8.0 | 0.00 | 0.00 | 0.00 | 74 | 1019.7 |
| 20260906144522 | 70 | 43 | 3.0 | 8.0 | 0.00 | 0.00 | 0.00 | 73 | 1019.6 |
| 20260906143412 | 70 | 316 | 3.0 | 8.0 | 0.00 | 0.00 | 0.00 | 75 | 1019.6 |
| 20260906143252 | 70 | 67 | 3.0 | 8.0 | 0.00 | 0.00 | 0.00 | 74 | 1019.6 |
| 20260906142730 | 70 | 350 | 2.0 | 8.0 | 0.00 | 0.00 | 0.00 | 77 | 1019.7 |
| 20260906142515 | 70 | 74 | 3.0 | 8.0 | 0.00 | 0.00 | 0.00 | 76 | 1019.7 |
| 20260906141730 | 70 | 335 | 2.0 | 5.0 | 0.00 | 0.00 | 0.00 | 78 | 1019.6 |
| 20260906141515 | 70 | 54 | 2.0 | 5.0 | 0.00 | 0.00 | 0.00 | 76 | 1019.7 |
| 20260906140406 | 69 | 324 | 2.0 | 7.0 | 0.00 | 0.00 | 0.00 | 82 | 1019.6 |
| 20260906140248 | 69 | 0 | 2.0 | 7.0 | 0.00 | 0.00 | 0.00 | 82 | 1019.6 |
| 20260906135843 | 68 | 91 | 2.0 | 7.0 | 0.00 | 0.00 | 0.00 | 82 | 1019.4 |
| 20260906135246 | 68 | 63 | 2.0 | 7.0 | 0.00 | 0.00 | 0.00 | 82 | 1019.4 |
| 20260906134846 | 67 | 47 | 2.0 | 7.0 | 0.00 | 0.00 | 0.00 | 84 | 1019.3 |
| 20260906134245 | 67 | 63 | 3.0 | 7.0 | 0.00 | 0.00 | 0.00 | 85 | 1019.3 |
| 20260906133728 | 67 | 297 | 3.0 | 8.0 | 0.00 | 0.00 | 0.00 | 87 | 1019.3 |
| 20260906133510 | 67 | 343 | 3.0 | 6.0 | 0.00 | 0.00 | 0.00 | 86 | 1019.3 |
| 20260906132404 | 67 | 308 | 3.0 | 8.0 | 0.00 | 0.00 | 0.00 | 88 | 1019.3 |
| 20260906132242 | 66 | 329 | 3.0 | 6.0 | 0.00 | 0.00 | 0.00 | 89 | 1019.3 |
| 20260906131403 | 65 | 269 | 2.0 | 7.0 | 0.00 | 0.00 | 0.00 | 90 | 1019.3 |
| 20260906131244 | 65 | 260 | 2.0 | 7.0 | 0.00 | 0.00 | 0.00 | 91 | 1019.3 |
| 20260906130404 | 64 | 299 | 3.0 | 6.0 | 0.00 | 0.00 | 0.00 | 94 | 1019.3 |
| 20260906130243 | 64 | 271 | 3.0 | 6.0 | 0.00 | 0.00 | 0.00 | 95 | 1019.3 |
| 20260906125852 | 63 | 271 | 2.0 | 6.0 | 0.00 | 0.00 | 0.00 | 97 | 1019.2 |
| 20260906125243 | 62 | 317 | 2.0 | 6.0 | 0.00 | 0.00 | 0.00 | 98 | 1019.2 |
| 20260906124403 | 62 | 309 | 2.0 | 6.0 | 0.00 | 0.00 | 0.00 | 98 | 1019.2 |
| 20260906124240 | 62 | 240 | 2.0 | 6.0 | 0.00 | 0.00 | 0.00 | 98 | 1019.2 |
| 20260906123843 | 61 | 246 | 2.0 | 8.0 | 0.00 | 0.00 | 0.00 | 99 | 1019.1 |
| 20260906123235 | 61 | 238 | 2.0 | 8.0 | 0.00 | 0.00 | 0.00 | 99 | 1019.1 |
| 20260906122402 | 60 | 317 | 2.0 | 4.0 | 0.00 | 0.00 | 0.00 | 99 | 1019.0 |
| 20260906122235 | 60 | 268 | 2.0 | 4.0 | 0.00 | 0.00 | 0.00 | 99 | 1019.0 |
| 20260906121845 | 60 | 279 | 2.0 | 5.0 | 0.00 | 0.00 | 0.00 | 99 | 1018.9 |
| 20260906121235 | 60 | 237 | 2.0 | 5.0 | 0.00 | 0.00 | 0.00 | 99 | 1018.9 |
| 20260906120403 | 59 | 239 | 2.0 | 6.0 | 0.00 | 0.00 | 0.00 | 99 | 1018.7 |
| 20260906120235 | 59 | 239 | 2.0 | 6.0 | 0.00 | 0.00 | 0.00 | 99 | 1018.8 |
| 20260906115719 | 58 | 280 | 1.0 | 4.0 | 0.00 | 0.00 | 0.00 | 99 | 1018.6 |
| 20260906115453 | 59 | 317 | 1.0 | 6.0 | 0.00 | 0.00 | 0.00 | 99 | 1018.7 |
| 20260906114403 | 58 | 260 | 1.0 | 4.0 | 0.00 | 0.00 | 0.00 | 99 | 1018.5 |
| 20260906114235 | 58 | 267 | 1.0 | 3.0 | 0.00 | 0.00 | 0.00 | 99 | 1018.5 |
| 20260906113403 | 58 | 226 | 2.0 | 5.0 | 0.00 | 0.00 | 0.00 | 99 | 1018.5 |
| 20260906113236 | 58 | 266 | 2.0 | 5.0 | 0.00 | 0.00 | 0.00 | 99 | 1018.4 |
| 20260906112401 | 58 | 269 | 2.0 | 5.0 | 0.00 | 0.00 | 0.00 | 99 | 1018.3 |
| 20260906112236 | 58 | 260 | 2.0 | 5.0 | 0.00 | 0.00 | 0.00 | 99 | 1018.3 |
| 20260906111854 | 58 | 236 | 1.0 | 4.0 | 0.00 | 0.00 | 0.00 | 98 | 1018.2 |
| 20260906111230 | 58 | 271 | 1.0 | 7.0 | 0.00 | 0.00 | 0.00 | 99 | 1018.2 |
| 20260906110402 | 58 | 280 | 2.0 | 7.0 | 0.00 | 0.00 | 0.00 | 99 | 1018.1 |
| 20260906110230 | 58 | 302 | 2.0 | 5.0 | 0.00 | 0.00 | 0.00 | 99 | 1018.1 |
| 20260906105401 | 58 | 302 | 2.0 | 6.0 | 0.00 | 0.00 | 0.00 | 98 | 1018.1 |
| 20260906105230 | 58 | 249 | 2.0 | 6.0 | 0.00 | 0.00 | 0.00 | 98 | 1018.1 |
| 20260906104406 | 58 | 245 | 2.0 | 4.0 | 0.00 | 0.00 | 0.00 | 98 | 1018.1 |
| 20260906104230 | 58 | 273 | 2.0 | 4.0 | 0.00 | 0.00 | 0.00 | 98 | 1018.1 |
| 20260906103402 | 58 | 276 | 2.0 | 5.0 | 0.00 | 0.00 | 0.00 | 98 | 1018.1 |
| 20260906103230 | 58 | 324 | 2.0 | 5.0 | 0.00 | 0.00 | 0.00 | 98 | 1018.1 |
| 20260906102403 | 58 | 283 | 2.0 | 5.0 | 0.00 | 0.00 | 0.00 | 98 | 1018.0 |
| 20260906102232 | 58 | 341 | 2.0 | 6.0 | 0.00 | 0.00 | 0.00 | 98 | 1018.0 |
| 20260906101401 | 58 | 294 | 2.0 | 6.0 | 0.00 | 0.00 | 0.00 | 98 | 1018.0 |
| 20260906101232 | 58 | 298 | 2.0 | 5.0 | 0.00 | 0.00 | 0.00 | 98 | 1018.0 |
| 20260906100400 | 58 | 248 | 2.0 | 5.0 | 0.00 | 0.00 | 0.00 | 98 | 1018.0 |
| 20260906100231 | 58 | 271 | 2.0 | 5.0 | 0.00 | 0.00 | 0.00 | 98 | 1018.0 |
| 20260906095705 | 58 | 299 | 2.0 | 4.0 | 0.00 | 0.00 | 0.00 | 98 | 1018.0 |
| 20260906095455 | 58 | 284 | 2.0 | 4.0 | 0.00 | 0.00 | 0.00 | 98 | 1018.0 |
| 20260906094712 | 58 | 249 | 2.0 | 6.0 | 0.00 | 0.00 | 0.00 | 98 | 1017.9 |
| 20260906094451 | 58 | 230 | 2.0 | 6.0 | 0.00 | 0.00 | 0.00 | 98 | 1017.9 |
| 20260906093403 | 58 | 279 | 2.0 | 6.0 | 0.00 | 0.00 | 0.00 | 98 | 1017.9 |
| 20260906093230 | 58 | 299 | 2.0 | 6.0 | 0.00 | 0.00 | 0.00 | 98 | 1017.9 |
| 20260906092403 | 58 | 355 | 2.0 | 8.0 | 0.00 | 0.00 | 0.00 | 98 | 1017.8 |
| 20260906092230 | 58 | 301 | 2.0 | 8.0 | 0.00 | 0.00 | 0.00 | 98 | 1017.8 |
| 20260906091403 | 58 | 228 | 2.0 | 4.0 | 0.00 | 0.00 | 0.00 | 98 | 1017.9 |
| 20260906091229 | 58 | 15 | 2.0 | 4.0 | 0.00 | 0.00 | 0.00 | 98 | 1017.9 |
| 20260906090402 | 57 | 260 | 1.0 | 4.0 | 0.00 | 0.00 | 0.00 | 98 | 1017.8 |
| 20260906090223 | 57 | 249 | 1.0 | 4.0 | 0.00 | 0.00 | 0.00 | 98 | 1017.8 |
| 20260906085338 | 57 | 298 | 1.0 | 4.0 | 0.00 | 0.00 | 0.00 | 98 | 1017.8 |
| 20260906085207 | 57 | 342 | 1.0 | 4.0 | 0.00 | 0.00 | 0.00 | 98 | 1017.8 |
| 20260906084819 | 57 | 335 | 1.0 | 4.0 | 0.00 | 0.00 | 0.00 | 98 | 1017.7 |
| 20260906084208 | 57 | 262 | 1.0 | 4.0 | 0.00 | 0.00 | 0.00 | 98 | 1017.7 |
| 20260906083338 | 57 | 282 | 1.0 | 4.0 | 0.00 | 0.00 | 0.00 | 98 | 1017.6 |
| 20260906083208 | 57 | 301 | 1.0 | 4.0 | 0.00 | 0.00 | 0.00 | 98 | 1017.6 |
| 20260906082331 | 57 | 299 | 1.0 | 4.0 | 0.00 | 0.00 | 0.00 | 98 | 1017.5 |
| 20260906082207 | 58 | 271 | 2.0 | 4.0 | 0.00 | 0.00 | 0.00 | 98 | 1017.5 |
| 20260906081330 | 58 | 304 | 2.0 | 5.0 | 0.00 | 0.00 | 0.00 | 98 | 1017.6 |
| 20260906081207 | 58 | 317 | 2.0 | 5.0 | 0.00 | 0.00 | 0.00 | 98 | 1017.6 |
| 20260906080329 | 58 | 276 | 2.0 | 5.0 | 0.00 | 0.00 | 0.00 | 98 | 1017.6 |
| 20260906080207 | 58 | 253 | 2.0 | 5.0 | 0.00 | 0.00 | 0.00 | 97 | 1017.6 |
| 20260906075330 | 58 | 304 | 2.0 | 4.0 | 0.00 | 0.00 | 0.00 | 98 | 1017.7 |
| 20260906075208 | 58 | 283 | 2.0 | 4.0 | 0.00 | 0.00 | 0.00 | 97 | 1017.6 |
| 20260906074329 | 58 | 309 | 2.0 | 5.0 | 0.00 | 0.00 | 0.00 | 97 | 1017.6 |
| 20260906074203 | 58 | 299 | 2.0 | 5.0 | 0.00 | 0.00 | 0.00 | 97 | 1017.5 |
| 20260906073637 | 58 | 301 | 2.0 | 5.0 | 0.00 | 0.00 | 0.00 | 97 | 1017.4 |
| 20260906073431 | 58 | 315 | 2.0 | 5.0 | 0.00 | 0.00 | 0.00 | 97 | 1017.4 |
| 20260906072331 | 58 | 286 | 2.0 | 4.0 | 0.00 | 0.00 | 0.00 | 97 | 1017.4 |
| 20260906072203 | 58 | 257 | 2.0 | 4.0 | 0.00 | 0.00 | 0.00 | 97 | 1017.4 |
| 20260906071330 | 58 | 274 | 2.0 | 6.0 | 0.00 | 0.00 | 0.00 | 97 | 1017.3 |
| 20260906071202 | 58 | 276 | 2.0 | 6.0 | 0.00 | 0.00 | 0.00 | 97 | 1017.3 |
| 20260906070332 | 58 | 317 | 2.0 | 6.0 | 0.00 | 0.00 | 0.00 | 97 | 1017.3 |
| 20260906070202 | 58 | 301 | 2.0 | 6.0 | 0.00 | 0.00 | 0.00 | 97 | 1017.3 |
| 20260906065331 | 58 | 247 | 2.0 | 5.0 | 0.00 | 0.00 | 0.00 | 97 | 1017.3 |
| 20260906065202 | 58 | 318 | 2.0 | 5.0 | 0.00 | 0.00 | 0.00 | 97 | 1017.3 |
| 20260906064332 | 58 | 276 | 2.0 | 5.0 | 0.00 | 0.00 | 0.00 | 97 | 1017.2 |
| 20260906064202 | 58 | 323 | 2.0 | 5.0 | 0.00 | 0.00 | 0.00 | 97 | 1017.2 |
| 20260906063330 | 58 | 315 | 2.0 | 5.0 | 0.00 | 0.00 | 0.00 | 97 | 1017.3 |
| 20260906063202 | 58 | 307 | 2.0 | 5.0 | 0.00 | 0.00 | 0.00 | 97 | 1017.3 |
| 20260906062330 | 58 | 261 | 1.0 | 4.0 | 0.00 | 0.00 | 0.00 | 96 | 1017.2 |
| 20260906062201 | 58 | 273 | 1.0 | 4.0 | 0.00 | 0.00 | 0.00 | 96 | 1017.2 |
| 20260906061329 | 58 | 346 | 2.0 | 5.0 | 0.00 | 0.00 | 0.00 | 96 | 1017.2 |
| 20260906061203 | 58 | 301 | 2.0 | 5.0 | 0.00 | 0.00 | 0.00 | 96 | 1017.2 |
| 20260906060332 | 58 | 241 | 2.0 | 5.0 | 0.00 | 0.00 | 0.00 | 96 | 1017.3 |
| 20260906060208 | 58 | 272 | 2.0 | 5.0 | 0.00 | 0.00 | 0.00 | 96 | 1017.3 |
| 20260906055330 | 57 | 282 | 2.0 | 5.0 | 0.00 | 0.00 | 0.00 | 96 | 1017.3 |
| 20260906055203 | 57 | 287 | 2.0 | 5.0 | 0.00 | 0.00 | 0.00 | 96 | 1017.3 |
| 20260906054803 | 57 | 271 | 2.0 | 4.0 | 0.00 | 0.00 | 0.00 | 95 | 1017.2 |
| 20260906054203 | 58 | 290 | 1.0 | 5.0 | 0.00 | 0.00 | 0.00 | 95 | 1017.3 |
| 20260906053330 | 58 | 285 | 2.0 | 5.0 | 0.00 | 0.00 | 0.00 | 95 | 1017.3 |
| 20260906053204 | 58 | 312 | 2.0 | 5.0 | 0.00 | 0.00 | 0.00 | 95 | 1017.2 |
| 20260906052329 | 58 | 332 | 2.0 | 6.0 | 0.00 | 0.00 | 0.00 | 95 | 1017.3 |
| 20260906052204 | 58 | 275 | 2.0 | 6.0 | 0.00 | 0.00 | 0.00 | 95 | 1017.3 |
| 20260906051328 | 58 | 281 | 2.0 | 5.0 | 0.00 | 0.00 | 0.00 | 94 | 1017.2 |
| 20260906051201 | 58 | 312 | 2.0 | 5.0 | 0.00 | 0.00 | 0.00 | 94 | 1017.2 |
| 20260906050329 | 58 | 322 | 2.0 | 7.0 | 0.00 | 0.00 | 0.00 | 94 | 1017.2 |
| 20260906050201 | 58 | 307 | 2.0 | 7.0 | 0.00 | 0.00 | 0.00 | 94 | 1017.2 |
| 20260906045329 | 58 | 253 | 2.0 | 5.0 | 0.00 | 0.00 | 0.00 | 94 | 1017.2 |
| 20260906045202 | 58 | 297 | 2.0 | 5.0 | 0.00 | 0.00 | 0.00 | 94 | 1017.2 |
| 20260906044330 | 57 | 312 | 2.0 | 6.0 | 0.00 | 0.00 | 0.00 | 95 | 1017.2 |
| 20260906044201 | 57 | 307 | 2.0 | 6.0 | 0.00 | 0.00 | 0.00 | 95 | 1017.2 |
| 20260906043329 | 57 | 252 | 1.0 | 5.0 | 0.00 | 0.00 | 0.00 | 95 | 1017.2 |
| 20260906043200 | 57 | 326 | 1.0 | 5.0 | 0.00 | 0.00 | 0.00 | 95 | 1017.2 |
| 20260906042329 | 57 | 308 | 1.0 | 4.0 | 0.00 | 0.00 | 0.00 | 95 | 1017.1 |
| 20260906042200 | 57 | 273 | 1.0 | 4.0 | 0.00 | 0.00 | 0.00 | 95 | 1017.1 |
| 20260906041632 | 57 | 296 | 1.0 | 4.0 | 0.00 | 0.00 | 0.00 | 95 | 1017.0 |
| 20260906041430 | 57 | 260 | 1.0 | 4.0 | 0.00 | 0.00 | 0.00 | 95 | 1017.1 |
| 20260906040332 | 57 | 279 | 1.0 | 4.0 | 0.00 | 0.00 | 0.00 | 95 | 1016.9 |
| 20260906040201 | 57 | 272 | 1.0 | 4.0 | 0.00 | 0.00 | 0.00 | 95 | 1016.9 |
| 20260906035633 | 57 | 290 | 1.0 | 3.0 | 0.00 | 0.00 | 0.00 | 94 | 1016.9 |
| 20260906035431 | 57 | 270 | 1.0 | 3.0 | 0.00 | 0.00 | 0.00 | 94 | 1016.9 |
| 20260906034331 | 57 | 280 | 1.0 | 3.0 | 0.00 | 0.00 | 0.00 | 93 | 1016.9 |
| 20260906034200 | 57 | 260 | 1.0 | 3.0 | 0.00 | 0.00 | 0.00 | 93 | 1016.9 |
| 20260906033327 | 57 | 314 | 1.0 | 4.0 | 0.00 | 0.00 | 0.00 | 93 | 1016.9 |
| 20260906033200 | 57 | 316 | 1.0 | 4.0 | 0.00 | 0.00 | 0.00 | 93 | 1016.9 |
| 20260906032324 | 58 | 298 | 1.0 | 4.0 | 0.00 | 0.00 | 0.00 | 92 | 1016.9 |
| 20260906032202 | 58 | 269 | 1.0 | 4.0 | 0.00 | 0.00 | 0.00 | 92 | 1017.0 |
| 20260906031647 | 58 | 251 | 1.0 | 4.0 | 0.00 | 0.00 | 0.00 | 93 | 1016.9 |
| 20260906031430 | 58 | 299 | 1.0 | 4.0 | 0.00 | 0.00 | 0.00 | 93 | 1017.0 |
| 20260906030325 | 58 | 276 | 1.0 | 3.0 | 0.00 | 0.00 | 0.00 | 92 | 1016.8 |
| 20260906030202 | 58 | 291 | 1.0 | 4.0 | 0.00 | 0.00 | 0.00 | 92 | 1016.8 |
| 20260906025325 | 59 | 296 | 1.0 | 4.0 | 0.00 | 0.00 | 0.00 | 90 | 1016.9 |
| 20260906025200 | 59 | 274 | 1.0 | 4.0 | 0.00 | 0.00 | 0.00 | 90 | 1016.9 |
| 20260906024322 | 59 | 308 | 0.0 | 3.0 | 0.00 | 0.00 | 0.00 | 90 | 1017.0 |
| 20260906024202 | 59 | 285 | 0.0 | 2.0 | 0.00 | 0.00 | 0.00 | 89 | 1017.0 |
| 20260906023322 | 60 | 0 | 0.0 | 3.0 | 0.00 | 0.00 | 0.00 | 89 | 1017.0 |
| 20260906023201 | 60 | 295 | 0.0 | 3.0 | 0.00 | 0.00 | 0.00 | 88 | 1017.0 |
| 20260906022323 | 60 | 0 | 0.0 | 2.0 | 0.00 | 0.00 | 0.00 | 89 | 1017.0 |
| 20260906022201 | 60 | 0 | 0.0 | 0.0 | 0.00 | 0.00 | 0.00 | 89 | 1017.0 |
| 20260906021323 | 60 | 0 | 0.0 | 4.0 | 0.00 | 0.00 | 0.00 | 88 | 1017.0 |
| 20260906021202 | 60 | 0 | 0.0 | 4.0 | 0.00 | 0.00 | 0.00 | 88 | 1017.0 |
| 20260906020320 | 61 | 16 | 0.0 | 3.0 | 0.00 | 0.00 | 0.00 | 87 | 1016.9 |
| 20260906020202 | 61 | 0 | 0.0 | 3.0 | 0.00 | 0.00 | 0.00 | 87 | 1016.9 |
| 20260906015322 | 61 | 313 | 0.0 | 2.0 | 0.00 | 0.00 | 0.00 | 87 | 1016.9 |
| 20260906015202 | 61 | 0 | 0.0 | 2.0 | 0.00 | 0.00 | 0.00 | 87 | 1016.9 |
| 20260906014909 | 62 | 0 | 0.0 | 2.0 | 0.00 | 0.00 | 0.00 | 86 | 1016.8 |
| 20260906014741 | 62 | 0 | 0.0 | 2.0 | 0.00 | 0.00 | 0.00 | 86 | 1016.8 |
| 20260906013637 | 62 | 0 | 0.0 | 2.0 | 0.00 | 0.00 | 0.00 | 85 | 1016.8 |
| 20260906013426 | 62 | 337 | 0.0 | 2.0 | 0.00 | 0.00 | 0.00 | 85 | 1016.8 |
| 20260906012635 | 63 | 0 | 0.0 | 2.0 | 0.00 | 0.00 | 0.00 | 84 | 1016.6 |
| 20260906012428 | 63 | 0 | 0.0 | 2.0 | 0.00 | 0.00 | 0.00 | 84 | 1016.6 |
| 20260906011304 | 63 | 0 | 0.0 | 2.0 | 0.00 | 0.00 | 0.00 | 83 | 1016.4 |
| 20260906011201 | 63 | 0 | 0.0 | 2.0 | 0.00 | 0.00 | 0.00 | 83 | 1016.4 |
| 20260906010302 | 63 | 0 | 0.0 | 4.0 | 0.00 | 0.00 | 0.00 | 83 | 1016.1 |
| 20260906010201 | 63 | 0 | 0.0 | 4.0 | 0.00 | 0.00 | 0.00 | 83 | 1016.1 |
| 20260906005637 | 64 | 0 | 0.0 | 2.0 | 0.00 | 0.00 | 0.00 | 83 | 1016.1 |
| 20260906005425 | 64 | 0 | 0.0 | 2.0 | 0.00 | 0.00 | 0.00 | 83 | 1016.1 |
| 20260906004301 | 64 | 0 | 0.0 | 2.0 | 0.00 | 0.00 | 0.00 | 82 | 1016.2 |
| 20260906004202 | 64 | 291 | 0.0 | 2.0 | 0.00 | 0.00 | 0.00 | 82 | 1016.2 |
| 20260906003301 | 65 | 63 | 0.0 | 2.0 | 0.00 | 0.00 | 0.00 | 80 | 1016.2 |
| 20260906003201 | 65 | 0 | 0.0 | 2.0 | 0.00 | 0.00 | 0.00 | 79 | 1016.2 |
| 20260906002640 | 65 | 310 | 1.0 | 3.0 | 0.00 | 0.00 | 0.00 | 78 | 1016.2 |
| 20260906002425 | 65 | 0 | 1.0 | 3.0 | 0.00 | 0.00 | 0.00 | 78 | 1016.2 |
| 20260906001644 | 66 | 0 | 0.0 | 2.0 | 0.00 | 0.00 | 0.00 | 76 | 1016.1 |
| 20260906001425 | 66 | 283 | 0.0 | 2.0 | 0.00 | 0.00 | 0.00 | 76 | 1016.1 |
| 20260906000739 | 67 | 0 | 1.0 | 4.0 | 0.00 | 0.00 | 0.00 | 74 | 1016.1 |
| 20260906000201 | 67 | 0 | 1.0 | 4.0 | 0.00 | 0.00 | 0.00 | 74 | 1016.1 |
| 20260905235648 | 68 | 56 | 2.0 | 8.0 | 0.00 | 0.00 | 0.00 | 71 | 1016.0 |
| 20260905235425 | 68 | 0 | 1.0 | 8.0 | 0.00 | 0.00 | 0.00 | 72 | 1016.0 |
| 20260905234302 | 68 | 319 | 2.0 | 6.0 | 0.00 | 0.00 | 0.00 | 70 | 1016.0 |
| 20260905234201 | 68 | 351 | 2.0 | 6.0 | 0.00 | 0.00 | 0.00 | 70 | 1016.0 |
| 20260905233638 | 69 | 327 | 1.0 | 4.0 | 0.00 | 0.00 | 0.00 | 70 | 1016.0 |
| 20260905233430 | 69 | 89 | 1.0 | 5.0 | 0.00 | 0.00 | 0.00 | 71 | 1016.0 |
| 20260905232733 | 70 | 72 | 2.0 | 7.0 | 0.00 | 0.00 | 0.00 | 68 | 1016.0 |
| 20260905232202 | 70 | 339 | 2.0 | 7.0 | 0.00 | 0.00 | 0.00 | 68 | 1016.0 |
| 20260905231302 | 71 | 212 | 2.0 | 6.0 | 0.00 | 0.00 | 0.00 | 67 | 1016.0 |
| 20260905231202 | 71 | 59 | 2.0 | 6.0 | 0.00 | 0.00 | 0.00 | 67 | 1016.0 |
| 20260905230301 | 71 | 0 | 2.0 | 9.0 | 0.00 | 0.00 | 0.00 | 66 | 1015.9 |
| 20260905230201 | 71 | 43 | 2.0 | 9.0 | 0.00 | 0.00 | 0.00 | 66 | 1015.9 |
| 20260905225300 | 72 | 326 | 3.0 | 9.0 | 0.00 | 0.00 | 0.00 | 67 | 1015.8 |
| 20260905225201 | 72 | 38 | 3.0 | 9.0 | 0.00 | 0.00 | 0.00 | 67 | 1015.7 |
| 20260905224301 | 72 | 0 | 2.0 | 8.0 | 0.00 | 0.00 | 0.00 | 68 | 1015.7 |
| 20260905224201 | 72 | 328 | 2.0 | 8.0 | 0.00 | 0.00 | 0.00 | 69 | 1015.7 |
| 20260905223302 | 73 | 82 | 3.0 | 9.0 | 0.00 | 0.00 | 0.00 | 67 | 1015.6 |
| 20260905223203 | 73 | 185 | 3.0 | 9.0 | 0.00 | 0.00 | 0.00 | 67 | 1015.6 |
| 20260905223121 | 73 | 287 | 2.0 | 7.0 | 0.00 | 0.00 | 0.00 | 66 | 1015.5 |
| 20260905222430 | 73 | 346 | 2.0 | 7.0 | 0.00 | 0.00 | 0.00 | 66 | 1015.5 |
| 20260905221644 | 74 | 7 | 2.0 | 9.0 | 0.00 | 0.00 | 0.00 | 64 | 1015.4 |
| 20260905221429 | 74 | 56 | 2.0 | 9.0 | 0.00 | 0.00 | 0.00 | 64 | 1015.4 |